Regional Weather Roundup
Issued by NWS

Home | Current Version | Previous Version | Text Only | Print | Product List | Glossary On
Versions: 1 2 3 4 5 6 7 8 9 10 11 12 13 14 15 16 17 18 19 20 21 22 23 24 25 26 27 28 29 30 31 32 33 34 35 36 37 38 39 40 41 42 43 44 45 46 47 48 49 50
000
ASUS44 KEWX 280802
RWRTX
SOUTH TEXAS REGIONAL WEATHER ROUNDUP
NATIONAL WEATHER SERVICE AUSTIN/SAN ANTONIO TX
300 AM CDT WED SEP 28 2016

NOTE: "FAIR" INDICATED FEW OR NO CLOUDS BELOW 12,000 FEET WITH NO
SIGNIFICANT WEATHER AND/OR OBSTRUCTIONS TO VISIBILITY.

* - THESE STATIONS ARE NOT NWS OR FAA STATIONS...AND ARE NOT SUBJECT
    TO NWS AND FAA QUALITY CONTROL.

TXZ171-172-183>190-280900-
TEXAS HILL COUNTRY AND EDWARDS PLATEAU

CITY           SKY/WX    TMP DP  RH WIND       PRES   REMARKS
JUNCTION       CLEAR     59  32  36 CALM      30.09S
*LLANO         CLEAR     63  63 100 CALM      30.09S
BURNET         CLEAR     62  58  86 CALM      30.07F
*HORSESHOE BAY CLEAR     61  60  96 CALM      30.06S
*KERRVILLE     CLEAR     61  60  96 CALM      30.08S
*FREDERICKSBRG CLEAR     60  58  94 CALM      30.09R
*ROCKSPRINGS   CLEAR     64  61  88 CALM      30.13S
*BOERNE STAGE  CLEAR     61  59  94 CALM      30.08S
*CASTROVILLE   CLEAR     67  66  95 N6        30.06S
HONDO          CLEAR     65  63  93 N5        30.05F
*UVALDE        CLEAR     66  65  97 CALM      30.07F
DEL RIO        CLEAR     64  62  93 CALM      30.06S
LAUGHLIN AFB   CLEAR     65  62  91 NE2       30.06S
CARRIZO SPRGS  CLEAR     68  63  83 CALM      30.03F
*EAGLE PASS    NOT AVBL
$$

TXZ173-191>194-202-209-217>225-228-280900-
CENTRAL AND SOUTH CENTRAL TEXAS

CITY           SKY/WX    TMP DP  RH WIND       PRES   REMARKS
GEORGETOWN     CLEAR     64  57  77 CALM      30.04S
AUSTIN/BERGSTM CLEAR     64  63  96 CALM      30.03S
AUSTIN/MABRY   CLEAR     67  64  90 CALM      30.05S
*AUSTIN/EXEC   CLEAR     66  63  88 CALM      30.04S
*LAGO VISTA    CLEAR     66  57  73 N6        30.06S
SAN MARCOS     CLEAR     64  63  94 NW5       30.06S
NEW BRAUNFELS  CLEAR     65  63  93 NW5       30.03S
RANDOLPH AFB   CLEAR     65  65 100 N3        30.04S
PT SAN ANTONIO CLEAR     66  64  92 N2        30.02F
SAN ANTONIO    CLEAR     66  62  87 NW5       30.05S
STINSON FIELD  CLEAR     68  65  90 CALM      30.03S
*PLEASANTON    CLEAR     69  67  93 CALM      30.04S
*LA GRANGE     CLEAR     68  66  93 CALM      30.00F
*GIDDINGS      CLEAR     64  62  93 CALM      30.06S
*GONZALES      CLEAR     66  66  99 CALM      30.02S
$$

TXZ163>164-176>182-195>201-210>213-226-227-235-280900-
SOUTHEAST TEXAS

CITY           SKY/WX    TMP DP  RH WIND       PRES   REMARKS
COLLEGE STN    CLEAR     67  63  87 CALM      30.02R
*BRYAN         CLEAR     64  64 100 CALM      30.03S
*CALDWELL      NOT AVBL
*CROCKETT      NOT AVBL
*BRENHAM       CLEAR     67  65  95 CALM      30.03R
HUNTSVILLE     CLEAR     66  63  90 CALM      30.01S
CONROE         CLEAR     66  64  93 CALM      30.01S
HOUSTON BUSH   PTCLDY    70  65  84 CALM      30.00S
HOUSTON HOBBY  PTCLDY    70  66  87 N6        29.99S
*HOUSTON SW AP CLEAR     69  66  88 CALM      30.00F
PEARLAND       CLEAR     73  67  81 N3        30.00F
HOUSTON HOOKS  CLEAR     69  65  86 CALM      30.00F
ELLINGTON FLD  PTCLDY    73  66  78 CALM      30.00S
SUGAR LAND     CLEAR     68  64  87 N5        29.99F
*HOUSTON EXEC  CLEAR     66  64  94 CALM      30.02S
*CLEVELAND MUN CLEAR     66  65  95 CALM      30.01S
*WHARTON       CLEAR     67  65  93 N3        30.01F
*COLUMBUS      FAIR      67  66  97 CALM      30.02S
*EAGLE LAKE    SUNNY     68  65  92 CALM      30.01S
$$

TXZ214>216-236>238-280900-
THE UPPER TEXAS COAST

CITY           SKY/WX    TMP DP  RH WIND       PRES   REMARKS
*ORANGE        CLEAR     68  61  77 CALM      30.00S
PORT ARTHUR    CLEAR     70  63  78 N6        29.98S
GALVESTON      CLEAR     77  69  76 N13       29.99S
ANGLETON       CLEAR     71  69  93 N3        29.99S
*BAY CITY      CLEAR     70  68  92 N3        30.00S
PALACIOS       CLEAR     70  66  87 N6        29.99F
$$

TXZ229>234-239>247-280900-
TEXAS COASTAL BEND AND RIO GRANDE PLAINS

CITY           SKY/WX    TMP DP  RH WIND       PRES   REMARKS
VICTORIA       CLEAR     67  65  93 N5        30.01F
*BEEVILLE      CLEAR     69  69 100 N6        30.01S
ROCKPORT       CLEAR     73  67  81 N7        29.99S
*PORT ARANSAS  CLEAR     74  70  87 N9        29.98F
*PORT LAVACA   CLEAR     69  68  98 CALM      30.00S
*INGLESIDE     CLEAR     72  69  90 N5        29.99S
CORPUS CHRISTI PTCLDY    72  68  87 N7        30.00S
CORPUS NAS     CLEAR     76  71  85 N15       29.99S
*ROBSTOWN      CLEAR     71  69  92 N5        30.01S
ALICE          CLEAR     70  68  93 N7        30.00F
KINGSVILLE NAS CLEAR     72  70  93 N8        30.00S
COTULLA        CLEAR     72  68  87 CALM      30.04S
*FAITH RANCH     N/A    N/A N/A N/A MISG        N/A
LAREDO         CLEAR     68  66  93 NW6       30.05S
$$

TXZ248>255-280900-
DEEP SOUTH TEXAS

CITY           SKY/WX    TMP DP  RH WIND       PRES   REMARKS
BROWNSVILLE    LGT RAIN  73  71  93 NW9       29.97S
PORT ISABEL    LGT RAIN  74  72  93 NW8       29.96S
*SOUTH PADRE     N/A     75  73  94 NW10      29.95F
HARLINGEN      CLOUDY    73  70  90 MISG      29.97S
*HEBBRONVILLE  CLEAR     69  66  90 NW6       30.04F
MCALLEN        CLEAR     72  65  78 NW9       30.00F
*WESLACO       PTCLDY    71  66  85 NW7       29.99R
FALFURRIAS     CLEAR     72  68  87 N3        30.01S
EDINBURG       PTCLDY    73  66  78 NW7       30.00F
*ZAPATA        CLOUDY    69  67  90 CALM      30.03F
$$

TXZ213>215-236>238-242>244-246-247-251-254-255-280900-
CMAN STATIONS

STATION/POSITION TIME  TEMP    WIND        PRES    WAVE
                       AIR SEA DIR/SP/G            HT/PER
                 (UTC) (F)     (DEG/KT/KT) (MB)    (FT/S)
SABINE PASS      0700   75 85   20/  7/  9 1016.6
SEA RIM ST PARK  0700   72     360/  6/  6 1015.7
NORTH JETTY/GLS  0700   77 84   10/ 11/ 13   N/A
EAGLE POINT      0700   77 82   30/  9/ 12 1015.4
MORGANS POINT    0700   74 84  360/  4/  5 1015.7
MISSION/ARANSAS  0700   76                 1016.0
PORT ARANSAS     0700   76 83  360/ 12/ 14 1015.6
MALAQUITE BEACH  0700   77 83  350/ 11/ 13 1015.8
BAFFIN BAY       0700   74 80  340/ 12/ 14 1015.3
PORT ISABEL      0700   75 84  330/  5/  6 1014.6
$$

GMZ080-GMZ150>470-280900-
OFFSHORE BUOY REPORTS

STATION/POSITION TIME  TEMP    WIND        PRES    WAVE
                       AIR SEA DIR/SP/G            HT/PER
                 (UTC) (F)     (DEG/KT/KT) (MB)    (FT/S)
20 E GALVESTON   0650   80 85  360/ 12/ 14 1014.8    2/ 6
35 NE PT MANSFLD 0650   82 86   50/ 14/ 17 1013.6    4/ 5
200 E PT ISABEL  0650   84 87   90/  8/ 10 1012.9    2/ 5
$$




USA.gov is the U.S. government's official web portal to all federal, state and local government web resources and services.